Regional Weather Roundup
Issued by NWS

Home | Current Version | Previous Version | Graphics & Text | Print | Product List | Glossary Off
Versions: 1 2 3 4 5 6 7 8 9 10 11 12 13 14 15 16 17 18 19 20 21 22 23 24 25 26 27 28 29 30 31 32 33 34 35 36 37 38 39 40 41 42 43 44 45 46 47 48 49 50

000
ASUS43 KLSX 161707
RWRMO

WEATHER SUMMARY FOR MISSOURI
NATIONAL WEATHER SERVICE SPRINGFIELD MO
1200 PM CDT TUE SEP 16 2014

NOTE: "FAIR" INDICATES FEW OR NO CLOUDS BELOW 12,000 FEET WITH NO
       SIGNIFICANT WEATHER AND/OR OBSTRUCTIONS TO VISIBILITY.
       CURRENT SKY AND/OR WEATHER CONDITIONS ARE NOT AVAILABLE FOR
       CHILLICOTHE AND FARMINGTON.

MOZ001>031-035>038-043-044-053-054-161800-
...NORTHERN AND WESTERN MISSOURI...

CITY           SKY/WX    TMP DP  RH WIND       PRES   REMARKS
KANSAS CTY INT MOSUNNY   62  51  67 SE6       30.21F
KANSAS C DTWN  SUNNY     65  50  58 NE6       30.20F
LEE`S SUMMIT   SUNNY     63  51  65 CALM      30.21F
ST JOSEPH      SUNNY     62  50  64 S7        30.22F
CHILLICOTHE      N/A     63  48  58 SE6       30.23F
KIRKSVILLE     MOSUNNY   62  47  57 VRB3      30.23F

$$
MOZ066>068-077>081-088>096-101>105-161800-
...SOUTHWEST MISSOURI...

CITY           SKY/WX    TMP DP  RH WIND       PRES   REMARKS
SPRINGFIELD    CLOUDY    68  57  68 E7        30.18S
JOPLIN         CLOUDY    63  60  90 NE7       30.18F FOG

$$
MOZ032>034-039>042-045>050-055>058-069>072-161800-
...CENTRAL MISSOURI...

CITY           SKY/WX    TMP DP  RH WIND       PRES   REMARKS
COLUMBIA       MOSUNNY   66  54  65 NW7       30.21F
JEFFERSON CITY CLOUDY    64  53  67 N5        30.21F
ROLLA          CLOUDY    59  55  87 N3        30.19F
SEDALIA        CLOUDY    64  54  69 VRB3      30.21F
WHITEMAN AFB   PTSUNNY   63  54  72 NE3       30.20F
OSAGE BEACH    CLOUDY    61  54  77 E5        30.20F

$$
MOZ051-052-059>065-161800-
...EAST CENTRAL MISSOURI...

CITY           SKY/WX    TMP DP  RH WIND       PRES   REMARKS
ST LOUIS INTL  CLOUDY    62  53  72 N3        30.22S
SPIRIT OF STL  CLOUDY    62  55  77 NE5       30.21S
ST CHARLES     CLOUDY    60  53  77 N5        30.22S

$$
MOZ072>076-082>087-097>100-106>115-161800-
...SOUTH CENTRAL AND SOUTHEAST MISSOURI...

CITY           SKY/WX    TMP DP  RH WIND       PRES   REMARKS
CAPE GIRARDEAU CLOUDY    65  54  67 NE9       30.19S
FARMINGTON     MOSUNNY   64  55  72 N8        30.21F
POPLAR BLUFF   CLOUDY    67  53  61 NE10      30.17F
WEST PLAINS    CLOUDY    65  56  72 NE8       30.20S

$$



USA.gov is the U.S. government's official web portal to all federal, state and local government web resources and services.